Vorticity
8 7 6 9 8 11 14 13 11 13 13 15 10 9 3 17 15 12 7 8 13 16 7 11 15 4 6 8 15 22 6 19 22 17 7 13 16 13 -13 -6 25 9 2 32 11 25 25 29 7 3 -13 12 -4 -13
7 7 8 8 10 11 11 13 13 15 15 15 9 10 8 15 11 16 10 8 11 5 -13 33 13 36 30 1 5 14 11 11 -21 -8 -14 -11 -19 36 14 6 6 16 -17 16 -11 15 -16 11 25 16 8 16 0 -10
8 7 8 8 10 11 11 14 17 17 14 10 12 11 12 13 16 18 14 14 11 10 10 11 40 2 3 -2 10 10 16 18 6 4 12 26 28 8 -6 -1 -10 0 9 3 6 49 4 21 -14 4 -6 33 20 32
6 7 6 8 11 10 13 16 17 15 7 12 12 10 14 16 24 15 22 29 15 12 10 57 -42 12 26 9 18 29 19 16 16 14 14 4 4 12 9 -12 -8 28 12 -2 31 14 25 5 8 21 -12 -14 27 22
6 5 4 7 11 11 14 17 16 7 13 11 9 14 12 28 25 17 23 30 21 15 -5 8 17 6 18 23 24 30 23 11 30 18 6 5 8 12 12 43 44 19 9 -3 26 15 15 8 28 21 7 -8 16 25
5 3 4 7 12 11 15 16 12 9 11 9 16 11 30 26 16 25 29 32 24 19 9 12 8 9 16 35 24 18 37 32 19 25 26 31 27 25 11 2 9 1 19 36 36 10 12 10 9 9 19 28 22 29
6 3 5 8 11 12 15 15 10 15 6 18 10 34 22 18 21 28 15 19 18 14 15 19 6 -9 13 0 22 33 13 9 20 19 18 16 33 33 -3 -2 15 11 19 37 19 17 22 22 21 23 21 20 15 13
10 5 4 8 12 12 13 13 13 11 12 14 29 14 22 15 13 15 17 16 16 14 16 4 -2 13 5 39 17 25 40 30 25 17 20 6 3 16 2 4 25 17 19 37 29 21 22 15 11 14 12 17 14 14
11 7 3 7 11 10 11 14 15 6 18 10 31 24 23 8 11 11 7 13 12 19 12 -3 9 17 14 31 3 6 -12 3 24 24 19 21 29 2 8 3 20 33 33 30 20 22 14 10 12 15 16 19 21 20
11 11 3 6 10 10 12 17 18 5 19 13 30 21 13 14 12 11 9 9 10 4 -2 -3 20 13 17 22 15 8 17 21 -8 16 -12 1 16 10 13 14 16 18 20 23 25 17 20 17 23 23 27 19 18 12
11 11 5 5 9 10 14 19 18 6 19 9 31 15 9 17 14 15 10 15 9 12 -11 4 18 20 13 12 17 14 9 8 3 -2 21 4 11 20 17 31 28 19 23 29 32 28 33 28 22 13 13 18 22 20
11 13 6 5 8 11 16 18 15 5 21 15 26 19 16 14 12 15 11 7 10 -4 11 14 13 14 8 12 14 5 8 8 9 16 15 -11 32 22 7 20 14 16 32 33 22 14 16 11 12 10 8 6 5 4
11 14 8 5 8 11 18 15 16 8 26 16 28 10 19 9 7 8 0 -1 16 10 10 12 17 13 16 7 11 10 10 8 6 6 8 20 18 17 24 19 21 -0 -1 0 -2 0 1 -1 -2 -2 -0 1 5 14
13 16 8 6 10 11 20 13 12 16 23 30 29 12 12 9 -1 -5 7 14 21 13 10 11 13 10 17 8 13 15 11 11 11 12 24 15 14 13 13 14 19 20 22 20 20 27 25 23 19 14 11 4 2 2
14 17 9 7 10 12 19 9 14 20 23 29 17 10 -7 5 13 7 12 17 12 11 9 18 1 13 14 12 16 10 9 13 17 37 14 11 12 10 9 8 6 3 1 -1 -4 -2 -1 -0 0 3 4 4 2 1
12 19 10 7 10 12 17 6 24 19 30 7 -1 15 32 22 10 13 16 13 13 9 10 11 10 10 14 11 9 12 12 25 30 11 7 7 2 2 2 3 5 7 9 10 12 10 8 8 7 7 6 5 5 5
9 16 12 8 11 13 14 9 19 17 20 -2 5 19 27 26 13 12 17 10 17 12 7 9 12 14 10 14 7 20 72 8 9 5 5 5 4 10 9 9 9 9 10 9 8 7 7 6 6 6 6 6 6 5
8 15 13 9 10 15 15 7 23 -8 2 5 16 23 30 24 19 14 15 18 18 13 15 11 17 10 12 30 67 13 7 10 7 5 6 3 8 9 8 9 8 8 7 6 6 6 6 6 5 5 4 5 5 5
9 13 15 8 9 12 24 3 14 -7 5 12 10 20 28 21 21 24 14 5 27 22 18 7 8 55 51 7 6 10 9 8 9 6 3 5 8 8 8 7 7 7 7 7 6 6 6 6 6 7 7 8 7 5
8 11 17 9 10 10 27 5 16 18 5 11 11 16 10 27 37 14 25 22 14 -13 39 83 19 10 8 4 9 10 10 5 3 5 7 7 7 7 7 7 7 7 7 7 7 8 8 8 7 6 4 5 7 10
8 12 19 9 13 11 19 8 18 13 -6 15 11 21 21 34 38 35 38 66 104 34 -14 10 12 9 8 9 10 6 3 5 7 8 8 7 7 6 7 7 7 6 6 7 7 6 6 5 6 8 11 14 15 16
8 13 21 14 15 14 0 18 18 7 6 5 -4 4 11 13 18 20 17 9 -3 8 7 9 9 9 9 8 5 4 5 6 8 8 8 8 8 8 7 7 7 8 8 8 9 9 9 10 12 15 17 18 19 18
11 20 18 19 15 12 5 16 16 16 14 10 9 6 8 2 5 6 5 6 7 8 9 9 8 7 6 6 7 8 8 7 8 8 9 8 8 8 9 9 9 8 9 10 12 15 17 17 17 18 19 17 17 12
39 21 19 13 10 7 8 13 12 14 13 14 14 23 15 5 4 7 4 3 5 4 4 5 5 6 8 8 8 9 8 8 8 8 9 10 10 8 7 7 6 6 8 8 11 19 19 18 17 17 16 16 14 11
13 15 10 10 9 12 13 11 16 14 14 11 5 13 7 1 10 7 5 5 5 6 6 6 7 8 7 7 8 8 8 10 11 10 10 9 8 7 7 8 9 11 10 9 6 13 18 18 18 17 17 16 13 12
12 13 8 7 13 14 13 13 14 13 14 11 13 14 13 14 0 25 8 7 6 7 7 8 7 7 7 7 8 9 9 9 8 7 8 6 7 7 9 10 10 10 11 12 9 9 16 17 17 17 16 15 13 13
11 11 6 10 12 16 15 12 15 8 15 17 19 13 6 9 14 28 13 12 8 8 8 7 7 8 9 9 9 9 8 8 8 7 7 8 9 10 9 10 10 11 13 14 12 10 18 18 17 16 15 15 13 12
12 10 9 11 12 14 13 14 16 14 11 12 10 12 10 10 14 23 14 12 8 7 6 4 4 4 7 9 9 10 9 7 7 8 8 9 9 9 9 10 10 11 13 14 15 11 10 18 17 17 16 14 14 14
14 13 9 11 11 17 15 14 12 15 10 10 8 9 9 18 23 17 12 12 10 7 6 4 5 2 9 9 10 11 9 8 7 8 9 8 5 6 5 6 6 7 10 13 15 14 11 9 19 18 17 14 13 13
9 7 9 8 8 15 14 12 10 11 13 14 11 11 23 29 19 12 12 12 11 10 9 7 8 10 13 9 8 8 9 9 9 8 8 6 7 7 8 8 8 8 11 14 15 15 12 12 8 19 19 15 13 13
5 7 11 10 8 12 13 14 15 13 12 16 15 19 15 12 10 10 11 11 11 11 12 13 16 15 9 11 7 4 8 11 7 7 6 6 6 7 9 10 10 9 12 16 16 15 15 13 12 10 12 19 17 14
20 21 19 15 13 12 10 12 14 16 20 18 20 13 6 6 8 10 12 16 20 21 18 12 8 9 11 14 8 10 13 10 6 6 8 8 7 9 10 10 11 12 13 15 16 15 14 15 14 12 13 8 16 17
18 16 16 18 21 20 14 12 16 24 30 24 11 5 5 5 7 7 8 15 14 11 10 11 11 12 12 14 12 6 5 7 8 11 9 7 9 11 11 13 14 14 14 15 15 15 15 13 13 15 13 12 12 11
Height
3056 3050 3045 3039 3034 3027 3019 3012 3005 2999 2993 2988 2983 2979 2973 2968 2964 2960 2956 2954 2950 2946 2943 2943 2942 2939 2937 2936 2933 2931 2930 2929 2928 2927 2926 2924 2919 2918 2917 2914 2909 2909 2911 2913 2918 2916 2914 2903 2907 2910 2909 2908 2905 2908
3052 3047 3041 3035 3029 3021 3013 3007 2999 2993 2988 2982 2976 2971 2966 2961 2958 2954 2948 2947 2944 2941 2939 2936 2935 2934 2931 2930 2928 2925 2924 2924 2924 2923 2923 2922 2920 2917 2914 2910 2908 2908 2908 2907 2908 2904 2903 2901 2904 2907 2905 2905 2904 2904
3048 3043 3037 3031 3024 3016 3008 3000 2993 2987 2982 2977 2970 2964 2958 2954 2949 2945 2940 2938 2936 2933 2931 2930 2931 2930 2927 2924 2922 2917 2915 2916 2914 2919 2918 2917 2915 2913 2911 2909 2907 2904 2902 2902 2900 2898 2895 2898 2900 2904 2905 2904 2903 2902
3044 3039 3034 3028 3019 3011 3003 2995 2987 2981 2975 2971 2963 2958 2952 2945 2940 2935 2932 2930 2930 2928 2925 2926 2926 2924 2920 2917 2915 2910 2908 2907 2906 2909 2911 2911 2911 2909 2906 2905 2903 2900 2897 2894 2892 2893 2892 2894 2897 2901 2904 2904 2901 2900
3040 3036 3031 3024 3015 3006 2998 2991 2984 2978 2972 2963 2957 2952 2945 2938 2933 2928 2925 2924 2924 2927 2922 2920 2921 2919 2915 2911 2906 2903 2900 2900 2901 2903 2905 2905 2905 2905 2901 2898 2895 2894 2893 2891 2888 2891 2891 2893 2895 2899 2901 2903 2900 2897
3036 3032 3027 3019 3010 3001 2994 2987 2980 2974 2968 2961 2952 2946 2939 2933 2928 2924 2922 2922 2922 2922 2920 2918 2918 2916 2912 2907 2903 2899 2896 2895 2897 2899 2901 2902 2901 2903 2900 2896 2894 2891 2888 2884 2883 2886 2888 2890 2894 2897 2900 2901 2898 2897
3033 3028 3022 3015 3007 2998 2989 2982 2975 2969 2964 2956 2949 2942 2936 2931 2928 2925 2924 2923 2921 2920 2919 2918 2916 2915 2911 2907 2903 2899 2897 2897 2898 2900 2901 2901 2900 2899 2897 2895 2890 2887 2883 2880 2881 2884 2887 2890 2895 2898 2899 2900 2900 2900
3028 3023 3018 3012 3003 2994 2985 2978 2972 2965 2960 2953 2946 2941 2936 2932 2929 2926 2924 2923 2922 2921 2920 2919 2917 2915 2911 2907 2905 2902 2898 2898 2899 2900 2901 2900 2900 2898 2898 2894 2888 2884 2882 2881 2881 2883 2886 2891 2894 2898 2899 2901 2903 2905
3024 3019 3015 3008 3000 2991 2983 2974 2968 2962 2957 2951 2944 2940 2936 2934 2931 2929 2927 2925 2924 2925 2922 2922 2918 2914 2911 2909 2907 2907 2907 2904 2906 2904 2903 2905 2903 2902 2900 2895 2890 2884 2883 2883 2883 2884 2887 2891 2897 2899 2902 2904 2909 2911
3020 3015 3010 3004 2996 2988 2980 2972 2964 2959 2954 2948 2943 2939 2936 2933 2931 2930 2928 2927 2926 2925 2924 2922 2919 2915 2913 2910 2910 2910 2910 2910 2911 2912 2911 2908 2907 2907 2903 2899 2894 2891 2889 2888 2888 2890 2892 2894 2899 2903 2908 2912 2915 2918
3015 3010 3006 2999 2992 2985 2977 2969 2961 2956 2952 2946 2940 2938 2935 2933 2931 2929 2929 2928 2927 2927 2924 2922 2919 2915 2915 2913 2912 2913 2915 2917 2917 2919 2916 2916 2914 2912 2909 2905 2900 2898 2897 2896 2896 2896 2898 2901 2907 2912 2916 2919 2922 2925
3010 3006 3001 2995 2988 2981 2974 2966 2960 2955 2949 2944 2940 2936 2934 2932 2931 2931 2929 2930 2928 2928 2926 2922 2919 2918 2917 2915 2916 2918 2918 2921 2923 2922 2921 2923 2924 2921 2921 2917 2915 2911 2908 2907 2909 2910 2911 2914 2918 2920 2923 2926 2930 2933
3006 3001 2997 2992 2984 2978 2971 2964 2959 2953 2947 2941 2938 2935 2933 2934 2932 2931 2931 2931 2930 2928 2926 2923 2921 2919 2919 2919 2919 2921 2924 2928 2929 2930 2931 2932 2932 2931 2929 2927 2926 2925 2924 2924 2924 2926 2929 2931 2934 2936 2937 2938 2941 2945
3002 2998 2994 2988 2982 2975 2969 2963 2957 2951 2945 2941 2937 2935 2934 2933 2933 2932 2930 2929 2929 2927 2925 2924 2922 2921 2921 2921 2922 2925 2930 2932 2935 2937 2938 2938 2938 2937 2937 2936 2936 2935 2935 2935 2935 2937 2938 2940 2940 2941 2943 2946 2950 2953
2999 2995 2990 2985 2979 2973 2967 2961 2955 2949 2946 2941 2939 2936 2935 2934 2931 2930 2928 2927 2927 2926 2926 2925 2924 2924 2923 2924 2925 2928 2932 2936 2940 2942 2942 2942 2943 2943 2943 2942 2943 2942 2943 2943 2943 2945 2946 2947 2949 2951 2953 2956 2958 2961
2996 2992 2987 2982 2977 2971 2966 2961 2955 2951 2945 2943 2941 2937 2932 2930 2929 2927 2926 2926 2926 2926 2926 2926 2925 2925 2925 2925 2927 2929 2933 2937 2943 2945 2946 2947 2947 2948 2949 2950 2950 2950 2951 2951 2952 2953 2954 2955 2957 2959 2960 2961 2963 2964
2993 2987 2983 2979 2974 2969 2964 2960 2956 2951 2948 2945 2939 2933 2929 2926 2925 2925 2925 2925 2925 2925 2925 2925 2925 2925 2927 2927 2929 2931 2934 2941 2946 2949 2952 2952 2953 2954 2955 2956 2956 2956 2957 2957 2957 2958 2959 2960 2962 2962 2963 2964 2965 2965
2989 2984 2980 2976 2973 2969 2964 2960 2956 2953 2948 2943 2938 2932 2927 2925 2923 2923 2923 2923 2924 2924 2925 2925 2926 2926 2927 2929 2932 2937 2942 2947 2951 2954 2956 2957 2958 2959 2959 2960 2961 2961 2961 2962 2962 2963 2963 2964 2964 2965 2965 2965 2965 2965
2985 2981 2977 2974 2971 2968 2964 2961 2958 2955 2951 2946 2940 2933 2928 2924 2922 2921 2921 2922 2922 2923 2925 2925 2926 2927 2930 2934 2940 2945 2949 2953 2956 2959 2961 2962 2963 2964 2964 2965 2965 2966 2966 2966 2966 2966 2966 2966 2966 2966 2965 2965 2964 2963
2981 2978 2975 2973 2970 2967 2964 2962 2960 2957 2954 2950 2944 2937 2930 2925 2922 2921 2921 2922 2923 2924 2924 2927 2931 2935 2939 2943 2947 2952 2956 2958 2962 2964 2966 2966 2967 2967 2968 2968 2968 2968 2968 2968 2967 2967 2966 2965 2964 2963 2962 2961 2960 2958
2978 2975 2972 2971 2968 2967 2965 2962 2961 2959 2957 2955 2951 2946 2941 2934 2928 2924 2924 2924 2925 2926 2930 2935 2939 2944 2947 2950 2954 2957 2960 2963 2966 2967 2968 2969 2969 2970 2970 2969 2969 2968 2967 2967 2966 2965 2964 2963 2961 2960 2958 2957 2955 2954
2974 2972 2970 2968 2967 2966 2965 2963 2962 2961 2961 2959 2957 2955 2951 2947 2943 2941 2939 2938 2936 2940 2942 2945 2948 2952 2955 2957 2959 2962 2965 2967 2969 2970 2971 2971 2971 2971 2971 2970 2970 2969 2967 2966 2964 2962 2960 2958 2957 2955 2954 2953 2952 2951
2970 2969 2968 2967 2966 2966 2966 2963 2962 2961 2961 2960 2960 2959 2958 2956 2954 2952 2950 2951 2950 2951 2953 2955 2957 2958 2961 2963 2965 2968 2969 2970 2971 2972 2972 2972 2972 2972 2971 2970 2969 2967 2965 2963 2961 2959 2957 2955 2953 2951 2950 2949 2948 2948
2964 2965 2965 2966 2966 2965 2964 2963 2962 2962 2961 2961 2961 2961 2961 2960 2961 2959 2959 2959 2960 2960 2961 2962 2963 2965 2967 2968 2969 2970 2971 2972 2973 2973 2973 2973 2972 2972 2971 2970 2969 2967 2965 2963 2960 2957 2954 2952 2950 2949 2947 2947 2946 2946
2966 2967 2967 2965 2965 2964 2964 2963 2962 2962 2962 2962 2962 2963 2963 2963 2963 2963 2963 2964 2964 2965 2966 2967 2968 2969 2970 2971 2972 2973 2973 2974 2974 2974 2974 2973 2973 2972 2971 2969 2968 2966 2963 2960 2957 2955 2952 2950 2948 2946 2945 2945 2944 2944
2966 2966 2966 2965 2964 2964 2963 2962 2962 2962 2962 2962 2963 2963 2963 2964 2965 2965 2965 2966 2967 2968 2969 2970 2971 2972 2973 2973 2974 2974 2975 2974 2974 2974 2974 2973 2972 2971 2969 2968 2965 2963 2961 2959 2956 2953 2950 2948 2946 2945 2944 2943 2943 2942
2966 2965 2965 2964 2964 2963 2962 2962 2962 2962 2962 2962 2963 2963 2964 2964 2964 2965 2966 2967 2968 2970 2971 2972 2972 2973 2974 2974 2975 2975 2975 2975 2974 2974 2973 2972 2972 2970 2968 2967 2965 2963 2960 2958 2955 2953 2950 2947 2945 2943 2942 2941 2941 2940
2965 2964 2964 2964 2963 2962 2961 2961 2961 2962 2962 2963 2963 2963 2963 2963 2964 2964 2965 2967 2968 2970 2971 2972 2973 2974 2974 2974 2975 2975 2975 2975 2974 2974 2973 2972 2971 2969 2968 2966 2964 2961 2958 2956 2954 2951 2948 2945 2943 2941 2940 2940 2939 2939
2963 2963 2963 2962 2962 2961 2960 2961 2961 2961 2962 2962 2962 2962 2962 2962 2962 2963 2965 2966 2968 2969 2970 2972 2973 2973 2974 2974 2974 2974 2974 2974 2974 2973 2972 2972 2970 2968 2966 2963 2961 2958 2956 2953 2951 2949 2947 2945 2942 2941 2939 2938 2938 2937
2962 2962 2961 2961 2960 2959 2960 2960 2959 2960 2960 2960 2961 2961 2961 2961 2962 2963 2965 2966 2967 2968 2969 2970 2971 2972 2972 2973 2973 2973 2973 2973 2972 2972 2970 2968 2966 2965 2963 2961 2959 2957 2955 2952 2949 2947 2945 2943 2941 2939 2938 2937 2936 2935
2960 2959 2959 2959 2958 2958 2957 2957 2957 2958 2958 2959 2960 2960 2961 2962 2963 2964 2965 2965 2966 2967 2968 2968 2969 2970 2971 2971 2971 2971 2971 2970 2970 2968 2967 2966 2964 2963 2961 2959 2957 2955 2952 2950 2947 2944 2942 2940 2939 2937 2936 2934 2933 2933
2956 2955 2955 2955 2955 2956 2955 2955 2955 2955 2956 2957 2958 2960 2962 2963 2964 2964 2964 2964 2965 2965 2966 2967 2967 2968 2968 2968 2968 2968 2968 2967 2967 2966 2965 2963 2962 2960 2958 2956 2954 2951 2949 2946 2944 2941 2939 2937 2936 2934 2933 2932 2931 2930
2952 2952 2952 2952 2952 2952 2954 2954 2954 2954 2955 2956 2958 2960 2961 2962 2963 2964 2964 2964 2964 2965 2965 2965 2966 2966 2966 2966 2966 2966 2965 2965 2964 2963 2962 2960 2958 2957 2955 2953 2950 2947 2945 2943 2940 2938 2936 2934 2933 2932 2930 2929 2929 2928